Dewpoint
11 13 13 11 5 8 8 7 6 8 15 19 21 22 23 24 25 26 27 28 28 29 28 28 29 29 29
9 9 8 7 6 6 5 2 2 4 11 16 19 21 22 23 24 24 25 26 27 27 27 28 27 27 27
5 6 5 6 6 6 5 5 6 7 12 16 19 21 21 21 22 23 24 25 25 26 27 27 26 25 24
4 3 4 5 5 4 4 7 7 8 9 12 14 17 19 21 22 23 24 24 25 25 25 23 22 22 23
4 4 3 3 4 6 7 8 10 12 12 13 14 14 15 16 18 19 20 21 21 20 20 20 21 22 22
6 6 5 5 6 8 10 11 11 13 13 13 14 13 14 15 14 15 16 17 18 20 20 21 21 21 21
17 18 16 16 15 14 14 14 14 15 14 12 13 12 13 10 10 10 12 14 17 19 20 21 21 21 21
26 22 21 20 18 17 17 16 14 14 14 12 12 10 9 8 7 10 13 16 18 19 20 20 20 20 20
22 21 20 20 21 18 17 16 15 15 13 11 10 10 10 9 11 12 14 16 16 17 17 18 19 19 19
16 18 20 23 24 20 19 17 16 14 14 14 13 13 12 12 11 11 10 9 11 13 14 15 15 16 17
18 17 16 15 16 18 23 25 21 17 17 15 14 13 12 11 12 10 9 9 10 10 10 11 12 13 13
19 17 16 15 14 14 14 13 14 14 13 14 14 13 14 14 11 11 10 10 10 9 9 9 9 10 13
20 19 20 24 19 18 16 15 15 14 12 12 10 10 11 11 11 12 11 11 11 10 10 9 11 13 10
20 22 18 22 22 21 21 19 17 17 16 14 13 13 13 13 14 15 13 15 13 11 10 11 14 12 9
12 11 12 12 17 17 16 20 20 18 16 17 16 15 15 15 17 16 14 12 11 11 12 12 11 10 10
2 5 8 10 11 13 13 16 16 15 17 17 16 19 18 17 15 12 11 10 11 12 11 11 10 10 9
6 6 6 8 9 12 12 12 13 17 19 17 17 16 13 10 11 9 8 9 15 13 11 10 9 8 7
Wind_Speed
9 10 9 6 3 5 4 5 6 7 7 7 8 10 11 11 11 11 11 12 14 15 12 12 12 13 16
10 8 5 6 3 4 6 6 6 8 9 9 10 12 12 13 13 13 13 13 15 14 12 12 13 15 17
7 6 4 5 5 7 7 7 9 10 11 13 13 13 13 14 15 16 16 16 16 16 14 15 16 18 19
5 6 6 6 5 6 7 9 9 9 9 11 12 14 15 16 17 18 17 16 17 17 17 17 19 19 19
8 7 8 7 8 5 9 8 8 9 9 10 9 10 10 13 14 15 16 17 18 19 19 20 20 20 20
10 11 10 10 9 11 9 10 9 8 10 10 9 10 10 9 13 17 19 20 21 21 21 20 21 22 23
11 12 11 11 11 11 13 13 13 11 10 13 10 13 11 13 20 21 21 21 21 22 22 22 22 22 23
14 14 14 13 13 13 14 14 13 13 11 15 11 16 15 14 19 20 21 22 22 22 22 23 24 26 27
22 22 22 21 17 12 13 14 16 15 12 15 15 17 16 15 13 21 21 21 22 22 23 23 24 24 21
17 21 24 22 26 23 16 19 17 15 16 19 16 14 17 16 16 13 12 16 16 16 18 21 23 18 15
17 17 17 18 18 19 20 18 19 22 14 17 16 15 17 15 11 11 12 13 13 16 21 22 22 21 16
19 20 21 21 20 20 22 22 21 23 18 19 15 17 18 18 17 13 13 13 14 14 12 16 24 29 29
18 18 16 12 16 17 20 22 23 22 20 18 18 17 16 18 15 16 18 15 14 13 15 18 17 14 16
8 11 16 9 15 17 19 20 21 19 20 20 20 19 20 20 19 18 17 16 12 15 18 18 15 15 17
12 10 11 12 9 8 12 11 15 18 18 16 19 22 20 19 18 15 15 17 17 18 18 19 18 18 17
12 12 14 14 11 10 12 11 16 18 16 13 15 14 12 13 19 15 17 20 19 19 18 20 21 17 19
12 12 11 10 15 14 14 15 15 10 8 6 8 9 15 18 13 22 21 18 14 16 15 17 21 23 24
Wind_Direction
116 148 164 177 212 203 219 255 270 265 261 272 282 287 286 286 287 287 290 289 287 280 279 286 299 306 304
147 148 177 185 216 266 263 261 261 265 258 265 273 273 274 277 279 280 278 282 281 278 283 280 283 293 296
129 148 154 169 209 238 247 249 260 261 262 264 266 265 269 271 272 272 272 271 270 271 272 275 282 289 291
155 171 190 193 206 247 256 245 248 249 251 256 264 270 272 271 268 268 267 267 267 267 268 273 277 280 282
194 194 201 194 207 217 241 257 260 255 255 255 258 256 247 258 254 264 260 259 260 263 267 270 273 275 276
207 208 211 217 219 229 241 248 262 229 240 256 255 253 247 250 255 260 260 263 266 268 269 270 273 276 277
226 232 233 229 232 234 236 242 247 256 261 253 254 265 264 266 268 267 265 264 266 270 273 273 272 273 275
225 236 238 243 242 243 248 256 259 258 252 260 257 267 266 260 262 262 260 262 265 268 271 274 277 278 279
255 254 254 255 243 242 244 246 253 250 246 257 253 259 258 259 257 259 256 257 265 273 275 277 279 280 285
242 250 251 249 248 247 240 238 243 256 238 243 250 249 265 249 243 244 257 266 268 268 272 278 281 281 278
241 242 239 236 234 235 238 234 232 241 241 242 245 241 241 257 266 272 274 273 270 272 274 277 281 277 277
233 234 233 233 232 228 230 235 237 247 254 252 256 250 251 258 263 257 256 263 269 265 269 277 284 284 278
254 254 254 242 251 243 234 235 241 245 246 245 248 252 251 256 260 259 265 265 259 268 277 274 268 266 272
290 273 252 239 246 238 230 228 234 237 236 240 242 244 247 247 253 255 256 257 264 272 272 270 260 257 263
259 267 272 270 272 297 255 266 247 233 236 232 235 236 238 246 252 251 258 267 269 271 269 269 268 266 269
251 254 251 254 263 263 267 281 261 253 244 241 252 243 236 241 239 256 260 264 266 266 267 268 271 270 269
257 255 251 253 256 253 246 251 257 287 244 212 231 241 258 257 255 252 265 269 269 269 269 270 274 275 277